Wind_Speed
8 8 8 8 8 8 7 7 6 5 5 5 5 6 6 6 6 7 7 7 7 7 6 6 5 6 6 7 8 8 9 10 10 10 10 9 7 6 4 3 2 2 1 2 2 2 1 1 1 1 1 1 1 1 3 4 5 7 8 9 10 10 11 12 12 13 13 12 12 11 11 10 9 9 8 7 7 7 7 6 7 7 7 6 6
7 7 7 7 7 6 6 6 5 4 4 4 5 5 5 6 6 7 7 6 6 6 6 6 5 5 5 6 7 8 8 9 9 9 9 9 8 6 5 4 3 3 2 1 2 2 2 1 1 1 1 2 2 2 2 1 1 3 4 6 7 9 10 11 11 12 12 13 13 13 13 13 11 10 10 9 8 8 7 7 7 7 8 8 7
6 6 6 6 6 5 5 4 4 3 3 4 4 5 5 5 6 6 6 5 5 5 4 5 5 5 5 5 6 6 7 8 8 8 8 9 8 7 5 5 4 3 3 2 2 2 2 2 1 1 0 1 1 1 2 2 1 1 1 2 4 6 7 9 10 10 11 11 13 14 14 14 13 13 12 11 10 9 8 8 8 8 8 9 9
5 5 5 5 4 4 3 3 3 2 3 3 3 4 4 5 5 5 5 5 5 4 3 4 4 5 5 5 5 6 6 6 7 7 8 8 7 7 7 6 5 4 4 4 2 2 2 2 2 1 0 1 1 1 1 0 1 1 2 2 2 4 5 6 7 8 9 10 11 12 13 14 14 14 14 13 13 11 10 9 9 9 9 9 9
5 5 5 4 4 3 3 2 2 3 3 3 3 3 4 4 5 6 6 6 5 4 4 3 4 5 5 5 5 5 5 5 6 6 7 7 7 6 7 7 6 5 5 4 3 3 2 2 2 1 1 2 2 2 2 2 2 2 3 2 3 3 4 5 5 6 7 7 8 10 11 12 12 13 13 13 13 12 12 11 10 10 9 9 10
5 5 4 4 3 2 2 2 3 3 4 3 3 3 3 4 6 6 7 7 6 6 5 5 3 3 4 5 5 4 5 5 5 6 6 6 7 7 7 6 6 6 5 4 3 2 2 2 1 1 2 3 3 2 3 3 3 3 3 3 3 3 4 5 5 5 5 5 6 7 8 10 10 10 11 11 12 12 12 12 12 11 10 10 10
5 5 4 3 2 2 2 2 3 3 4 4 3 3 4 5 7 7 8 9 8 8 7 6 4 3 3 4 5 4 4 5 5 5 6 7 8 8 7 6 7 7 6 4 3 2 1 2 2 2 3 3 3 3 3 3 3 3 3 3 3 4 5 5 6 6 5 5 5 5 6 7 7 7 8 10 11 12 12 12 12 12 11 10 11
6 5 4 2 1 1 2 2 3 3 4 3 3 3 4 5 7 8 9 10 9 9 8 7 6 5 3 3 4 4 4 4 4 5 6 8 8 9 9 8 8 7 7 5 3 2 2 1 1 1 2 3 3 3 2 2 2 3 4 3 2 3 4 5 6 6 6 5 5 5 5 6 7 7 7 8 8 9 9 9 10 10 10 11 11
6 5 3 2 1 1 2 3 3 3 3 2 2 2 3 5 7 8 9 9 9 9 9 8 7 6 5 4 4 3 3 4 4 5 6 7 8 9 9 8 8 7 7 6 5 4 2 2 2 1 1 2 3 3 3 2 1 2 3 3 3 2 4 4 5 5 5 5 6 5 6 6 7 7 7 7 7 6 5 5 6 7 8 8 9
5 4 3 2 1 2 2 3 3 3 2 2 1 2 4 5 6 7 8 8 8 8 9 9 8 7 6 6 5 4 4 4 4 5 5 6 7 7 7 7 7 7 6 6 6 5 4 3 2 2 1 2 3 4 4 3 1 2 3 3 3 3 3 4 4 4 5 6 6 6 6 6 7 7 7 7 7 6 5 5 5 6 7 7 8
5 4 3 2 2 3 3 3 3 3 1 1 1 2 3 5 6 7 7 8 8 9 10 10 9 8 7 6 6 5 5 4 4 4 5 5 6 6 6 6 7 7 6 7 6 5 4 3 3 2 2 3 4 5 5 4 2 3 3 3 4 4 4 4 4 4 5 5 6 6 6 6 7 7 7 7 8 8 7 7 7 7 8 9 9
5 4 3 3 3 3 4 4 4 3 3 2 2 2 4 5 7 8 9 9 9 10 10 9 9 8 7 6 5 5 5 4 4 4 4 4 5 5 5 6 7 7 7 8 7 5 4 4 4 4 4 4 4 5 5 5 4 4 4 3 4 5 5 5 5 5 4 4 5 5 5 5 6 7 7 7 8 9 9 9 9 10 10 10 11
6 4 4 3 3 3 4 4 4 4 4 4 3 3 4 6 8 9 10 10 10 10 10 9 8 7 7 7 6 5 5 4 4 4 4 4 4 4 5 6 7 7 8 8 8 8 7 6 6 5 4 5 6 6 7 7 6 6 5 5 4 5 5 6 5 5 5 4 4 4 4 4 5 6 6 7 7 8 9 9 10 10 11 11 12
6 4 3 2 2 3 4 4 4 4 4 4 4 4 5 7 8 9 9 9 10 10 10 10 9 8 7 6 6 6 6 6 5 5 4 4 4 4 4 6 7 7 8 9 9 10 9 9 8 7 7 7 8 9 9 9 8 7 6 6 5 5 5 5 5 6 6 6 5 5 5 5 5 6 6 6 7 8 9 9 10 10 11 12 12
5 4 3 1 1 2 3 3 3 3 3 3 3 4 6 7 8 8 9 9 9 9 10 11 11 11 9 8 7 7 7 7 6 5 5 4 4 4 5 6 7 7 7 8 9 10 10 11 10 10 9 9 8 8 9 8 8 7 7 6 6 5 5 5 6 7 7 7 7 7 7 8 8 8 7 7 8 8 9 10 11 11 12 12 13
5 3 2 1 1 2 3 2 1 2 2 3 3 5 6 7 8 8 8 8 8 8 9 10 10 11 10 9 8 7 7 7 7 6 5 5 4 5 6 7 7 7 7 8 8 9 10 11 11 11 10 9 9 8 8 8 7 7 6 6 6 6 6 6 6 7 8 9 10 10 10 10 9 9 9 9 9 10 10 11 12 12 13 13 14
3 2 1 1 2 2 2 1 1 1 2 3 4 5 6 6 6 7 7 7 7 7 8 9 9 10 10 10 9 7 6 6 6 6 6 6 6 6 7 8 8 8 8 8 8 9 9 10 10 10 11 10 10 9 8 8 7 7 7 7 6 6 6 7 7 8 9 10 11 11 11 11 10 10 9 9 11 12 12 13 14 14 15 15 16
2 1 1 2 3 3 2 1 1 1 2 3 4 5 5 5 6 6 6 6 7 7 8 8 9 10 10 10 8 7 6 6 6 6 6 6 7 7 8 8 9 9 9 9 9 9 9 10 10 9 10 10 10 10 9 8 8 7 7 7 8 8 8 8 8 9 10 10 11 11 11 11 11 10 10 10 11 13 15 16 17 17 18 18 18
1 1 2 3 4 4 3 2 2 2 2 3 4 4 5 5 5 6 6 6 7 8 9 9 10 11 11 10 9 7 6 6 6 6 6 7 7 8 9 10 10 10 11 11 11 11 10 10 10 10 9 10 10 10 9 9 8 8 8 8 8 9 9 9 10 10 10 10 10 10 10 10 10 10 10 11 12 14 16 18 19 20 21 21 21
0 1 2 3 4 4 4 3 3 2 3 4 3 4 5 6 7 7 7 7 7 9 10 10 10 11 11 10 9 8 7 6 6 6 6 7 8 9 9 10 10 10 11 11 11 11 11 11 11 10 9 9 10 10 10 10 9 9 9 9 9 9 9 10 10 10 11 10 10 10 10 11 11 11 12 13 14 16 17 19 20 22 23 23 24
1 2 3 4 4 5 5 4 4 3 3 4 3 3 5 7 9 9 8 8 9 10 10 10 11 11 10 9 8 8 7 7 6 6 6 5 6 7 8 8 8 8 9 9 10 10 10 11 11 11 11 10 10 10 10 11 11 11 11 11 11 11 10 10 11 11 12 12 12 13 13 14 14 15 15 16 17 18 19 20 21 23 24 25 26
2 2 4 5 5 5 5 5 5 4 4 4 4 4 6 8 9 9 9 9 10 10 10 10 10 10 9 8 8 7 7 7 7 7 6 5 5 5 6 6 6 7 8 9 9 9 9 9 10 11 12 12 11 11 12 12 12 13 13 13 13 13 13 13 13 13 14 15 15 16 17 17 18 19 19 20 21 22 23 24 25 25 26 27 28
4 4 4 5 6 6 6 6 5 5 5 5 5 6 8 9 9 8 9 10 9 8 8 8 8 8 8 7 7 7 7 8 8 8 8 8 6 5 5 6 6 7 9 9 9 9 8 8 9 10 11 12 13 13 13 14 14 15 15 16 16 17 17 17 17 17 18 18 19 19 20 21 22 23 24 25 26 27 28 29 29 29 29 29 29
7 5 5 5 7 7 7 6 6 6 7 7 7 7 9 10 9 8 9 9 8 7 7 7 7 6 6 7 7 7 7 8 9 9 9 9 8 7 6 6 7 8 9 10 10 10 9 8 8 9 10 11 12 13 14 15 16 16 17 17 18 19 20 20 20 21 21 22 22 23 24 25 26 27 29 30 31 33 33 34 34 33 32 32 31
8 7 5 5 6 8 7 7 7 7 8 8 8 9 10 10 8 8 9 8 7 7 7 7 6 6 6 7 7 7 7 8 9 10 10 11 10 9 8 8 8 8 8 9 10 11 11 10 9 8 9 10 11 12 13 15 16 17 18 20 21 21 22 23 23 24 25 25 26 26 27 28 29 30 32 33 35 36 37 38 38 37 37 36 35
10 8 6 6 7 8 8 8 8 8 8 9 9 10 10 10 8 8 8 8 7 7 7 6 6 6 6 6 6 7 7 7 8 9 10 11 10 9 9 8 8 8 8 8 8 9 10 9 9 9 9 9 10 11 12 14 15 16 18 19 21 22 23 24 25 26 27 28 28 29 30 31 31 32 33 34 35 36 37 38 38 39 39 39 38
11 9 8 8 8 8 8 8 8 8 9 9 10 10 10 9 8 8 7 7 8 7 7 6 5 5 5 5 5 6 6 7 7 8 9 9 9 9 9 8 8 8 7 7 7 7 7 7 8 8 9 9 10 10 11 12 14 15 16 17 19 21 22 23 24 25 26 27 29 30 31 32 33 33 34 35 35 36 36 37 38 38 39 40 40
12 10 9 10 9 9 9 9 9 9 10 10 10 11 11 9 8 8 7 7 8 8 7 6 5 5 6 6 6 6 6 6 6 7 8 8 8 8 8 8 8 8 7 7 8 8 8 7 7 8 9 9 9 9 10 11 12 14 15 16 17 19 20 21 22 24 25 26 27 29 30 31 32 33 34 35 36 36 37 38 38 39 40 40 41
14 12 12 12 11 10 11 11 10 10 11 11 11 11 11 10 8 8 7 8 8 7 7 5 4 6 7 7 7 6 6 6 5 6 7 7 7 8 8 8 8 8 8 8 9 10 10 9 8 8 9 10 11 11 11 12 13 15 16 17 18 19 20 21 22 23 24 25 26 28 29 30 31 32 33 34 35 36 37 38 38 39 40 41 42
16 14 14 13 12 12 12 12 12 12 12 12 12 12 12 10 9 8 8 8 9 8 7 6 5 7 9 9 9 8 7 7 7 7 8 8 8 8 9 9 10 10 10 10 10 11 12 12 11 11 11 12 13 14 15 16 17 18 19 20 21 22 22 23 24 25 26 26 27 28 29 30 31 32 33 34 35 36 36 37 39 40 41 42 43
18 16 15 15 14 14 14 14 13 13 13 13 13 13 12 11 10 9 8 9 9 9 8 7 7 8 9 10 10 10 9 9 9 9 9 9 9 10 11 12 12 12 12 11 11 11 13 14 14 13 13 13 14 15 17 18 19 20 21 23 24 25 25 25 26 27 27 28 29 30 31 31 32 32 33 34 35 36 37 38 39 40 42 43 44
19 18 16 16 16 15 15 16 15 15 15 14 14 14 13 13 12 10 9 9 10 10 9 9 9 10 9 9 11 11 11 10 10 10 10 10 10 11 12 13 13 13 13 12 12 11 12 14 15 15 14 14 14 15 16 18 20 21 23 24 25 26 26 26 27 27 27 28 29 30 31 32 32 33 34 35 36 37 38 39 41 42 43 45 45
20 19 18 18 17 17 17 17 17 16 16 16 15 15 14 14 14 12 10 10 10 10 10 9 9 9 8 9 11 13 13 13 12 12 12 12 13 13 13 13 13 14 14 13 12 11 11 12 14 15 15 15 14 15 17 18 20 22 24 25 27 28 28 27 27 27 27 28 29 30 31 31 32 33 34 35 37 39 40 42 43 45 46 47 47
19 19 19 19 19 18 18 19 18 18 17 17 17 16 15 15 15 14 12 10 10 9 9 9 8 7 7 9 12 14 14 14 13 13 13 15 16 16 16 14 13 13 14 14 13 12 12 12 14 15 17 17 16 16 18 19 20 22 24 26 27 28 28 28 27 27 27 28 29 30 31 32 33 34 35 36 38 40 42 44 45 46 47 48 47
20 19 19 19 19 19 19 20 20 19 18 19 18 17 17 17 16 15 13 11 10 9 9 9 9 8 7 9 10 12 12 13 13 14 16 18 19 20 19 17 14 14 14 15 15 14 14 14 15 16 18 19 19 19 20 20 21 22 24 26 27 28 28 27 27 27 28 29 30 31 32 33 34 35 37 38 40 42 44 46 47 47 47 47 47
21 20 21 21 21 21 21 21 21 20 20 20 20 19 19 18 18 17 15 13 11 10 10 10 11 10 8 8 10 11 12 13 15 17 18 19 20 21 20 18 15 14 15 16 17 17 17 17 17 18 19 21 21 22 22 23 23 23 24 26 27 28 27 27 27 28 29 30 31 32 33 33 35 37 39 41 42 44 46 48 48 49 48 48 48
23 22 22 22 22 22 22 22 22 21 21 22 21 21 20 19 19 19 17 15 13 12 11 12 13 13 10 9 10 12 13 14 15 15 15 16 16 16 16 15 14 14 16 17 18 20 20 20 20 21 22 23 24 24 24 25 24 25 26 27 28 28 28 28 29 31 31 32 33 34 35 36 38 40 42 43 45 47 49 50 50 50 49 47 46
25 24 23 23 22 22 23 23 22 22 22 23 23 22 21 20 20 20 19 18 16 14 13 13 14 14 12 11 11 12 13 14 12 12 14 16 15 14 13 12 13 15 16 18 20 21 22 22 23 24 25 26 26 26 26 26 26 27 29 30 29 28 29 30 32 33 34 35 36 37 38 40 42 43 45 46 48 49 51 51 50 49 47 45 43
24 23 23 23 22 22 23 22 21 22 23 23 23 23 22 20 20 21 21 20 19 17 15 15 15 15 14 13 12 12 13 13 11 11 14 16 15 13 12 12 14 16 17 19 20 22 23 23 24 26 27 28 28 29 28 28 28 29 30 31 30 30 31 33 34 35 37 38 39 40 41 43 44 46 47 48 49 49 49 48 46 45 45 44 43
21 21 21 21 21 21 21 21 21 22 23 23 23 23 22 21 20 21 22 22 22 20 18 16 16 16 16 15 13 12 13 13 12 11 13 15 14 14 14 14 16 17 18 20 21 22 23 24 25 27 28 28 29 30 30 30 29 30 31 31 31 32 33 34 35 36 38 39 40 42 42 43 45 46 47 47 48 47 45 44 42 41 40 41 42
18 18 18 18 18 18 19 19 20 21 21 22 22 22 22 21 21 22 23 24 24 23 20 18 17 17 17 16 15 14 13 13 13 12 12 14 14 14 14 16 17 18 19 20 21 23 24 25 26 28 29 30 30 31 32 31 31 31 31 32 32 33 34 35 36 36 38 40 41 42 43 43 44 45 45 45 45 43 42 41 40 40 39 39 40
13 13 14 14 14 15 16 17 19 20 20 20 21 22 22 22 22 23 24 25 25 25 23 21 19 18 19 18 17 16 15 14 13 13 13 14 14 14 14 16 17 18 20 21 22 23 24 26 27 29 30 31 31 32 33 33 32 32 33 33 34 34 35 36 37 37 38 40 41 42 43 43 42 42 43 42 42 41 41 40 40 40 39 38 38
7 7 8 9 10 12 14 16 18 19 18 19 20 22 23 23 24 25 25 25 26 26 25 23 21 20 20 20 19 18 17 15 14 14 16 16 15 15 15 17 18 20 21 22 23 24 25 27 28 30 31 32 32 32 33 34 33 33 34 35 35 36 36 37 38 38 38 40 41 41 41 41 40 39 40 40 41 41 40 39 39 38 38 37 37
6 6 6 6 7 9 11 13 15 17 18 18 20 22 23 24 25 26 27 27 27 27 26 24 24 22 21 21 21 20 19 18 17 16 18 18 18 17 17 18 20 22 23 23 24 25 26 28 29 31 33 34 34 33 33 34 35 35 36 36 36 37 37 37 39 39 39 40 41 40 39 39 38 38 38 39 39 39 39 38 38 38 39 39 39
8 7 7 7 7 7 8 10 12 13 15 16 18 21 24 26 27 28 28 28 28 28 27 26 26 25 24 23 22 21 21 21 21 20 20 21 21 21 21 21 22 23 24 25 26 27 28 29 31 32 34 35 35 35 35 35 36 37 37 37 37 37 38 38 39 40 40 40 40 39 38 37 37 37 37 37 37 37 38 39 39 40 41 42 42
10 10 10 10 10 10 10 11 11 12 13 13 15 18 21 24 26 28 28 28 28 28 27 27 27 26 26 26 24 22 22 22 24 24 23 24 24 24 24 24 24 25 26 27 28 28 29 31 33 35 36 36 37 37 36 36 38 38 38 38 38 38 39 39 39 40 41 40 39 38 37 36 36 36 35 35 35 37 40 41 41 42 43 44 44
14 14 15 15 15 14 14 14 14 14 14 15 16 17 19 21 23 25 26 27 28 28 28 28 28 28 28 28 27 24 23 24 25 27 27 27 27 27 27 27 27 27 28 29 30 30 31 32 35 37 38 39 39 39 38 38 39 39 39 39 39 39 40 40 40 41 41 40 38 37 35 34 35 34 33 34 36 39 41 42 43 43 44 45 45
19 20 20 20 20 20 20 20 19 19 19 19 20 21 23 24 25 26 26 26 26 26 26 27 27 28 30 30 28 26 26 25 26 29 31 30 30 30 30 30 31 30 30 31 32 32 33 34 36 39 40 41 41 41 40 39 40 40 40 40 40 41 41 41 41 41 41 40 37 35 34 33 33 33 33 35 38 40 42 43 44 44 45 45 46
24 24 24 25 26 26 26 26 26 26 25 25 25 25 27 29 30 30 30 30 29 27 27 26 26 27 29 30 29 27 28 28 28 31 34 33 32 33 33 33 34 34 33 33 33 34 34 36 38 40 41 42 43 43 42 40 40 40 40 40 41 41 42 41 41 41 40 39 36 33 32 32 31 33 35 37 39 41 43 44 45 45 45 46 47
28 28 29 30 31 31 30 31 31 31 31 31 30 30 31 33 35 35 34 34 33 32 31 30 28 28 30 31 30 29 29 29 29 33 37 35 33 35 36 36 37 37 38 38 36 35 36 38 40 42 43 43 44 45 43 41 40 40 41 41 41 42 42 41 41 40 39 38 34 31 31 31 31 34 37 38 40 42 43 44 44 45 46 46 47
33 34 34 33 33 34 34 35 35 36 36 36 35 35 36 37 38 40 40 39 38 37 36 35 33 33 34 35 34 32 32 32 32 36 40 38 36 37 39 40 39 40 42 42 40 38 39 40 42 44 45 45 46 46 45 42 40 40 41 41 41 42 41 41 41 40 39 37 33 30 30 31 32 35 38 39 40 41 42 43 43 44 45 46 47
Wind_Direction
123 121 118 115 112 108 104 97 91 82 73 67 63 61 53 45 43 46 46 40 37 31 23 24 24 26 30 33 39 47 50 52 54 55 58 61 65 75 82 90 101 108 127 131 127 130 134 149 110 74 51 55 113 184 222 239 244 248 255 264 270 272 271 268 265 264 263 263 263 263 264 263 261 260 258 257 259 263 268 273 279 286 292 297 306
126 123 119 117 114 109 103 96 87 78 64 52 43 39 36 32 32 36 41 39 37 31 17 6 3 7 13 18 24 32 38 43 47 50 53 57 61 67 76 87 96 104 120 129 131 131 128 133 115 79 68 80 84 85 96 112 261 258 259 267 274 276 276 275 271 267 264 264 264 263 263 264 265 266 266 266 265 267 271 276 281 290 295 296 298
128 125 123 121 117 112 103 92 82 68 53 38 23 16 15 18 19 22 28 32 33 32 18 358 352 351 355 1 10 19 25 30 36 41 47 52 54 59 68 76 81 88 103 112 126 140 144 152 149 103 59 84 82 73 88 90 58 326 311 300 289 286 285 283 280 274 266 262 261 262 263 264 265 265 267 268 269 269 274 281 287 292 295 297 299
135 131 129 127 125 120 105 89 70 45 32 21 7 3 8 10 11 13 18 22 22 24 20 359 348 347 346 348 354 4 11 15 23 30 37 42 46 52 53 57 68 73 85 100 119 144 155 158 154 158 270 308 324 324 318 336 332 334 342 348 338 320 312 304 293 280 269 261 258 258 260 262 263 263 264 265 267 270 273 278 281 284 286 291 295
138 135 133 134 135 124 99 73 40 20 14 10 2 4 14 13 11 13 15 16 11 9 12 7 359 348 340 340 343 346 351 358 11 19 25 29 32 43 47 48 59 71 82 98 120 147 159 155 159 191 242 272 285 301 301 305 317 327 322 321 338 330 319 312 306 295 281 272 267 265 264 264 263 263 264 264 265 266 265 266 270 274 280 286 293
143 140 139 142 137 111 81 51 23 6 358 360 5 14 23 25 22 21 19 14 8 6 10 10 8 354 335 333 335 337 340 345 357 6 11 15 17 30 47 51 55 65 76 88 104 134 149 146 172 240 261 269 281 296 301 307 313 316 309 311 321 311 301 299 303 312 312 306 294 283 276 270 269 270 272 271 268 262 256 254 257 265 275 283 290
152 148 146 146 131 86 58 22 358 346 341 345 5 30 36 33 27 21 16 10 4 4 9 8 1 357 336 327 329 331 334 337 347 356 358 2 7 18 34 46 46 49 60 76 83 84 100 124 160 219 254 274 290 292 296 307 306 306 306 312 316 306 307 307 305 307 315 328 330 317 302 293 293 295 293 288 279 268 256 247 247 255 266 275 282
156 152 149 144 110 52 24 349 332 325 324 333 2 33 37 31 23 12 5 360 355 356 2 4 358 356 348 325 323 326 328 334 344 352 354 357 3 8 15 25 33 36 43 54 61 52 42 57 102 203 251 271 283 284 294 305 297 296 298 305 313 309 310 309 307 306 309 319 327 331 329 327 331 331 327 316 298 280 266 251 245 252 262 271 277
159 154 149 135 68 22 359 339 325 318 316 321 352 25 24 18 13 6 358 351 349 351 355 359 359 358 350 334 323 323 327 338 348 352 354 359 5 6 5 9 17 26 34 40 45 39 13 11 29 13 302 286 285 280 279 274 275 287 289 287 283 297 301 296 301 304 305 309 314 326 332 334 339 344 346 340 326 306 290 269 255 257 266 275 279
160 155 145 122 69 30 7 350 338 331 323 318 333 1 7 7 9 4 358 354 353 357 1 1 0 359 354 340 334 335 337 343 350 349 351 359 7 5 359 358 3 11 18 29 44 44 11 352 6 7 346 326 311 293 280 267 273 287 282 280 285 302 301 287 290 295 297 301 305 315 326 334 337 339 343 341 335 329 322 309 287 276 277 283 288
161 152 137 111 76 47 23 8 5 4 13 52 9 359 3 9 13 9 6 4 2 4 8 5 360 358 358 350 341 338 332 333 338 340 347 358 5 0 351 348 349 352 359 11 29 47 34 1 356 6 351 345 329 305 296 295 296 288 286 294 305 318 318 299 292 289 289 295 303 309 320 335 335 331 334 333 332 334 331 323 312 306 302 300 300
159 143 123 98 68 45 29 21 28 47 73 86 72 30 17 18 16 10 8 9 8 8 9 6 358 355 357 355 348 339 325 322 323 331 344 355 358 351 340 336 336 340 349 359 5 19 30 10 5 15 357 344 335 317 313 316 314 309 309 312 317 323 328 322 309 295 285 286 298 304 314 332 331 330 333 331 330 332 330 326 322 321 316 312 309
155 137 119 94 62 37 26 26 41 63 74 76 65 38 24 21 15 10 9 11 13 14 14 12 3 357 360 357 352 346 334 327 326 332 342 349 348 338 326 322 326 335 344 351 353 354 359 357 358 3 351 342 339 337 344 342 335 331 326 322 324 327 329 326 315 301 292 285 285 291 305 322 322 325 329 329 328 326 323 322 322 320 315 313 311
153 140 128 105 56 27 22 28 46 66 71 66 54 32 19 17 13 12 12 14 20 24 24 23 17 12 13 5 357 353 349 347 345 346 345 340 335 322 311 311 320 332 339 343 346 345 345 346 346 344 340 341 342 343 350 352 348 342 334 327 323 321 318 314 306 297 292 292 292 297 306 311 310 313 318 322 322 318 315 315 314 312 309 308 306
156 151 145 130 36 8 13 26 48 68 67 56 39 18 13 14 14 18 18 17 24 31 30 28 24 22 21 15 7 358 352 351 351 351 348 336 324 310 302 306 318 328 333 337 339 339 339 338 337 338 339 341 343 341 341 346 349 345 338 331 324 316 307 298 290 284 282 282 287 295 303 305 304 304 308 311 313 313 313 313 311 309 307 304 303
159 160 159 174 288 335 358 15 44 67 51 31 19 9 9 14 18 23 19 15 19 25 27 24 20 20 21 18 13 2 351 346 345 345 343 336 324 310 305 310 317 323 328 331 332 333 334 332 331 333 335 337 339 338 336 335 338 339 336 331 323 313 301 290 282 276 274 275 279 285 290 293 292 294 299 304 307 309 308 308 307 305 304 303 302
162 171 181 228 270 299 332 349 358 36 21 7 4 4 11 21 25 25 19 11 7 9 15 15 11 11 13 13 8 359 346 337 335 334 333 330 323 312 308 311 315 318 322 323 323 325 326 324 325 327 329 330 333 335 337 334 330 328 325 321 315 308 298 290 283 277 275 274 275 277 279 281 282 282 288 296 302 305 305 304 303 302 302 302 302
174 215 248 265 272 284 303 305 284 322 352 353 356 1 13 27 30 26 16 5 355 354 2 5 2 1 3 4 1 354 341 328 321 320 320 318 313 309 307 309 312 314 317 317 317 319 319 317 318 322 324 324 327 329 332 333 329 323 317 311 308 305 302 297 290 284 280 278 276 274 274 274 274 275 279 287 294 299 301 302 302 301 301 301 301
203 273 277 275 276 282 289 282 265 281 330 341 350 1 10 14 16 12 3 355 349 348 352 355 356 357 358 359 359 355 346 333 322 313 310 305 302 302 303 306 310 313 315 316 316 315 312 310 311 315 317 318 319 320 321 323 324 324 320 314 309 307 305 302 298 293 288 284 281 277 273 270 269 271 276 281 286 290 294 296 297 297 297 297 297
255 332 319 297 286 285 288 279 261 269 316 331 341 354 355 351 351 352 350 350 350 346 346 350 355 359 360 1 1 0 356 349 339 325 313 303 296 294 295 298 303 307 310 312 313 310 307 303 302 303 304 305 307 307 308 310 314 317 319 317 314 310 305 301 297 293 288 283 277 272 268 265 265 267 272 276 280 283 287 289 291 292 292 291 291
274 342 345 332 312 298 293 285 265 260 297 315 322 332 333 335 337 339 343 346 347 346 347 352 358 1 2 5 5 5 5 1 355 346 334 319 305 296 293 295 299 304 306 308 309 308 305 302 299 298 297 298 299 300 300 301 302 303 304 305 305 302 298 293 288 284 281 277 273 269 266 265 264 265 268 271 275 279 283 286 288 288 288 287 287
268 314 337 342 331 314 301 291 272 258 276 295 303 311 317 324 329 332 337 341 344 348 350 354 359 0 1 3 5 5 6 7 6 7 5 0 346 321 309 307 309 310 311 312 312 311 308 304 302 302 301 301 301 300 298 295 293 290 289 288 289 289 288 286 283 280 278 275 273 271 269 268 268 268 269 271 274 278 282 285 286 287 287 286 284
258 284 312 332 333 324 310 297 279 259 262 280 293 300 307 316 323 327 331 336 343 349 351 352 356 359 356 355 359 358 357 1 6 10 13 13 9 354 334 324 320 319 322 324 323 322 319 310 303 301 302 303 302 300 297 293 290 286 284 282 282 282 283 283 283 282 280 278 276 274 273 273 273 274 275 277 279 281 284 285 286 286 286 285 284
247 265 288 312 327 328 317 304 285 264 260 271 285 293 302 310 316 321 327 333 340 345 343 342 349 354 349 347 349 349 348 351 354 358 1 1 359 352 341 328 321 321 325 327 329 332 333 328 317 306 301 300 301 300 298 295 293 292 291 290 288 287 286 286 285 284 283 282 281 279 278 277 276 277 278 279 281 282 283 284 285 285 284 284 282
244 254 267 289 314 325 321 308 290 271 261 266 277 287 297 305 308 316 324 328 333 334 330 332 340 346 345 343 343 340 342 344 346 347 349 350 349 347 342 333 326 328 329 329 331 334 335 338 336 326 315 309 306 305 304 301 299 299 299 298 296 294 293 291 290 289 289 288 287 286 285 283 282 281 281 280 281 281 282 282 282 282 282 282 281
243 249 256 272 296 313 318 310 294 276 263 266 275 282 292 299 301 311 319 320 322 322 322 328 338 345 346 343 339 335 337 341 342 343 344 347 350 352 350 344 340 341 340 335 335 336 335 337 340 338 333 329 325 320 316 312 309 307 305 303 300 299 298 297 296 294 293 292 292 291 290 289 288 287 286 286 285 285 285 284 284 283 282 281 280
244 247 251 265 283 301 308 305 293 276 264 266 274 280 288 291 292 304 314 315 315 317 322 332 343 356 2 360 349 341 340 340 342 346 348 352 357 359 359 358 356 355 350 344 342 345 346 345 345 345 343 339 336 331 325 320 316 312 310 307 304 302 301 301 300 299 298 297 295 294 293 292 291 290 290 290 289 289 288 288 287 286 284 283 281
244 244 245 259 276 291 299 298 288 273 263 264 272 278 283 285 284 295 307 309 310 315 323 334 353 12 18 16 7 358 353 349 352 358 359 359 359 1 2 4 4 2 1 358 353 354 360 3 1 0 357 352 346 340 333 326 320 315 311 308 305 303 302 302 301 301 300 299 298 297 296 295 294 294 293 292 292 291 291 290 288 287 286 285 283
242 241 242 254 269 281 291 293 285 271 262 261 268 276 279 278 276 285 298 303 305 311 320 329 351 7 7 8 8 5 3 360 358 359 359 357 354 354 356 357 356 356 359 2 359 355 356 0 4 5 3 358 353 348 342 336 330 324 318 314 310 307 305 303 302 301 300 300 299 298 297 297 297 296 295 294 293 292 292 291 290 288 286 285 283
244 243 242 249 263 274 284 290 285 273 262 259 264 273 276 272 268 274 289 297 301 306 313 320 333 347 355 360 4 7 5 360 354 350 349 347 345 344 345 345 344 344 347 352 354 350 346 347 351 355 357 353 349 345 342 337 333 327 322 317 314 311 309 307 305 304 303 302 300 299 298 297 296 295 294 293 293 292 291 291 290 289 288 286 284
244 245 244 248 258 269 278 286 285 274 263 258 260 267 273 268 262 265 279 291 297 302 309 316 320 328 342 353 1 4 3 356 350 347 346 345 343 340 338 337 336 336 337 338 341 341 338 337 338 341 343 343 342 339 335 331 326 322 317 314 312 310 308 307 306 305 304 303 301 299 298 297 296 295 294 293 292 291 291 290 289 288 287 286 284
245 246 247 248 254 263 273 282 284 276 264 257 256 261 268 265 259 259 269 282 291 298 307 315 316 319 329 344 352 352 349 346 341 339 340 341 341 339 335 333 331 330 330 329 329 329 328 327 326 327 328 329 332 330 326 322 318 314 311 308 306 305 304 303 302 301 300 299 298 297 296 296 296 296 295 294 293 292 291 290 289 288 287 286 284
247 248 248 248 251 260 271 279 282 276 265 256 254 257 264 262 257 255 261 272 284 297 307 315 318 320 325 334 336 334 333 333 331 327 325 324 324 324 325 326 324 322 322 321 319 318 317 316 315 315 315 316 319 319 316 313 311 309 306 304 303 302 301 300 299 299 299 298 297 297 298 298 298 297 296 294 293 292 291 290 289 288 287 287 285
248 248 248 248 251 258 267 275 279 275 264 256 252 254 260 261 256 253 256 264 278 294 306 315 321 324 329 331 331 331 330 330 330 325 319 314 313 315 318 319 316 314 314 313 312 310 308 307 306 305 306 306 308 308 307 305 304 304 303 301 300 299 298 299 300 301 302 302 301 301 301 301 300 299 296 293 291 289 288 288 288 288 288 288 287
250 250 251 250 252 257 264 271 276 273 264 255 251 251 255 259 256 253 253 258 270 286 298 307 313 318 329 334 336 338 336 334 332 325 317 312 309 311 314 315 312 308 307 307 307 305 302 302 301 300 301 302 304 305 304 303 303 302 300 298 297 296 297 299 301 303 304 304 304 303 303 302 300 297 294 292 290 288 287 287 287 287 288 288 288
251 251 252 253 255 259 264 268 272 270 262 254 249 247 251 256 256 254 252 254 261 271 284 295 301 307 319 331 336 338 334 332 331 327 322 317 313 310 310 311 310 307 306 306 306 306 304 302 301 301 302 303 305 306 305 305 305 304 302 300 299 299 301 303 305 305 306 305 304 304 303 301 299 297 294 292 290 288 287 286 286 287 288 288 288
251 250 250 252 255 259 261 264 265 264 259 252 247 245 248 254 256 254 253 253 256 263 273 284 291 298 308 318 326 330 329 329 333 336 338 335 329 323 319 316 314 310 308 307 307 307 307 307 307 307 307 307 307 307 307 307 309 309 307 304 303 304 306 307 308 308 308 309 308 307 306 304 303 301 298 296 293 291 289 288 288 289 289 288 288
250 249 249 251 253 256 259 261 260 258 254 250 246 245 247 254 258 256 254 253 254 259 268 277 285 293 302 309 316 324 328 331 334 338 342 341 336 334 331 322 315 310 308 307 307 307 308 309 310 310 311 312 311 310 310 311 312 312 310 308 306 307 309 309 310 311 312 312 311 310 310 309 308 306 303 300 298 296 295 295 295 294 292 291 290
249 248 249 250 252 254 256 256 254 252 250 247 246 246 248 255 259 259 256 254 254 256 263 271 278 286 296 304 310 319 327 331 331 329 333 335 331 326 325 319 312 309 309 308 308 308 309 311 311 310 311 312 312 312 312 313 313 313 312 310 307 308 309 310 311 312 313 312 312 312 313 313 312 309 306 304 302 301 301 302 300 298 296 294 293
246 246 246 248 249 249 250 250 248 248 247 246 247 248 251 257 262 261 258 256 255 254 258 266 272 278 288 297 303 310 318 324 329 330 333 334 328 321 318 316 313 312 311 311 311 311 312 312 311 310 311 312 311 311 311 312 313 313 312 310 308 308 309 310 311 312 312 312 313 313 314 314 313 310 308 306 305 305 304 304 302 301 300 298 296
243 244 245 245 245 243 244 245 246 246 246 247 248 250 253 259 263 262 260 258 256 254 255 261 268 273 279 288 295 300 306 315 323 328 329 329 325 319 316 315 315 315 314 314 314 314 313 313 312 312 312 312 311 311 311 311 313 312 310 308 308 307 308 308 309 311 312 312 313 314 315 315 313 311 309 307 306 305 305 304 304 304 303 301 300
237 240 241 242 242 243 244 246 247 247 248 248 249 251 254 259 263 264 263 261 259 257 254 258 265 270 274 280 287 292 297 306 316 322 322 321 318 314 315 316 317 317 317 316 316 316 315 316 316 316 315 314 313 312 311 311 311 310 308 307 307 306 307 308 310 312 313 313 314 314 314 314 313 310 308 306 306 306 306 306 306 306 305 304 302
225 233 239 243 245 245 246 248 250 251 251 250 250 252 256 260 263 266 267 265 263 261 258 257 262 267 271 274 280 287 291 296 306 315 318 318 314 310 311 314 316 317 318 318 317 317 318 320 321 320 319 317 315 314 312 310 310 309 307 306 306 307 309 311 312 313 314 313 314 314 314 313 312 309 307 307 307 308 308 309 309 309 308 307 306
223 233 240 248 252 251 251 253 254 254 254 251 251 254 258 263 266 268 269 268 267 266 264 261 261 264 268 271 275 281 287 291 297 305 311 315 314 309 307 309 312 315 317 318 318 318 319 322 322 322 321 319 318 315 312 310 309 308 307 307 307 309 311 312 312 314 315 314 314 315 315 314 312 310 308 309 310 310 310 311 311 310 310 309 309
237 242 245 250 255 258 260 261 263 263 261 258 256 257 260 264 267 269 270 270 270 270 269 268 266 265 267 269 271 276 282 287 292 297 302 306 310 311 307 305 307 310 313 314 315 316 318 321 322 322 322 322 320 316 312 310 309 308 307 307 308 310 311 313 313 314 316 316 317 318 317 315 312 311 311 311 312 311 311 312 313 312 312 312 311
253 257 259 259 257 258 261 265 269 274 276 275 272 269 268 268 269 270 270 270 270 271 271 272 272 270 268 268 270 273 278 284 289 293 295 299 304 308 309 304 302 305 308 310 311 313 317 320 321 322 323 323 322 318 313 310 308 308 308 308 309 311 312 314 315 315 316 317 318 320 319 315 312 312 313 313 313 313 313 314 315 314 314 314 314
262 264 265 264 263 263 264 263 265 271 276 278 278 278 278 277 276 276 276 275 274 274 274 274 274 273 272 269 269 271 274 279 285 289 291 294 298 304 307 305 301 301 304 306 307 310 315 318 319 320 322 323 322 319 314 310 308 308 309 309 311 312 313 315 316 316 317 318 319 320 318 314 312 313 314 314 315 314 314 315 316 316 315 315 315
263 265 266 267 267 266 265 263 264 265 268 269 271 274 276 276 276 277 278 280 280 279 278 278 277 275 275 274 273 271 271 275 281 285 287 290 294 298 302 303 301 301 302 304 305 308 312 315 316 317 320 322 322 319 314 310 309 309 310 310 311 312 314 316 317 317 317 319 321 320 317 314 313 314 315 317 317 316 316 316 316 317 317 317 317
263 263 264 265 265 263 262 262 263 262 262 262 263 265 268 270 271 273 275 276 278 279 280 279 279 279 279 280 278 274 271 272 276 280 282 285 290 294 296 298 299 300 300 300 302 306 309 312 313 314 316 319 320 318 315 311 309 310 311 311 312 313 316 317 317 317 316 318 321 320 316 315 315 315 317 319 319 318 317 317 317 318 319 319 319
262 261 260 259 260 261 262 262 262 260 259 259 259 260 262 265 267 269 271 272 273 275 276 277 278 279 280 280 280 277 274 272 273 276 279 281 285 289 291 293 295 298 299 297 298 303 306 309 311 312 313 315 316 317 315 311 310 310 310 310 311 313 317 317 317 316 316 318 322 319 315 316 317 317 319 321 321 319 318 318 319 319 320 321 320
256 255 254 252 253 256 258 259 259 259 259 259 258 258 260 263 266 267 268 270 270 271 272 274 275 275 275 275 275 275 275 274 273 275 277 279 282 285 287 290 292 295 296 295 296 300 302 305 308 309 311 312 312 314 314 311 309 310 310 309 311 314 317 317 316 316 316 319 323 319 315 317 318 318 320 322 322 321 319 319 320 320 321 322 321
Height
5941 5941 5941 5941 5941 5941 5941 5941 5941 5941 5941 5941 5941 5940 5939 5939 5938 5937 5937 5936 5935 5934 5933 5933 5932 5932 5932 5931 5931 5931 5930 5930 5929 5928 5928 5927 5927 5926 5926 5926 5926 5925 5925 5925 5925 5924 5924 5924 5923 5923 5922 5922 5922 5921 5921 5922 5922 5922 5922 5922 5922 5922 5922 5922 5921 5921 5922 5922 5923 5923 5922 5922 5923 5922 5922 5922 5922 5922 5921 5921 5921 5921 5921 5921 5921
5942 5942 5942 5942 5942 5942 5942 5942 5942 5942 5942 5942 5941 5940 5940 5939 5938 5937 5937 5936 5936 5935 5934 5933 5932 5932 5932 5931 5931 5931 5931 5930 5930 5929 5928 5928 5927 5927 5927 5926 5926 5926 5925 5925 5925 5925 5924 5924 5923 5923 5922 5922 5922 5922 5922 5921 5921 5921 5921 5921 5921 5921 5921 5921 5921 5921 5921 5921 5922 5922 5922 5922 5922 5923 5923 5923 5923 5922 5922 5922 5922 5921 5921 5921 5920
5942 5942 5942 5942 5942 5943 5943 5943 5943 5942 5942 5942 5941 5940 5939 5938 5938 5937 5937 5936 5936 5935 5934 5933 5933 5932 5932 5932 5932 5931 5931 5931 5930 5930 5929 5928 5928 5927 5927 5927 5926 5926 5926 5925 5925 5924 5924 5923 5923 5923 5922 5922 5922 5922 5921 5921 5921 5921 5921 5921 5920 5920 5920 5921 5921 5921 5920 5920 5921 5921 5922 5922 5922 5922 5922 5923 5923 5923 5922 5922 5922 5921 5921 5920 5920
5942 5943 5943 5943 5943 5943 5943 5943 5943 5943 5942 5942 5941 5940 5939 5938 5938 5937 5937 5936 5936 5935 5934 5934 5933 5932 5932 5932 5932 5932 5931 5931 5931 5930 5929 5929 5928 5927 5927 5927 5927 5926 5926 5925 5925 5924 5924 5923 5923 5922 5922 5922 5922 5922 5921 5921 5921 5921 5921 5920 5920 5920 5920 5920 5920 5920 5920 5919 5919 5920 5921 5921 5921 5921 5921 5922 5922 5923 5923 5922 5921 5921 5920 5920 5920
5943 5943 5943 5944 5944 5944 5944 5943 5943 5942 5942 5942 5941 5940 5939 5938 5938 5937 5937 5936 5936 5935 5935 5934 5933 5932 5932 5932 5932 5932 5931 5931 5931 5930 5930 5929 5928 5928 5927 5927 5927 5927 5926 5925 5925 5924 5924 5923 5923 5922 5922 5921 5921 5921 5921 5921 5921 5921 5921 5920 5919 5919 5919 5919 5919 5919 5919 5918 5918 5919 5920 5920 5920 5919 5920 5920 5921 5922 5922 5922 5921 5920 5920 5920 5920
5943 5943 5944 5944 5944 5944 5944 5943 5943 5942 5942 5941 5941 5940 5939 5938 5938 5937 5937 5936 5935 5935 5935 5934 5934 5933 5932 5932 5932 5931 5931 5931 5931 5930 5930 5929 5928 5928 5928 5927 5926 5926 5926 5925 5924 5924 5924 5924 5923 5922 5922 5921 5920 5921 5921 5922 5922 5921 5920 5920 5919 5919 5919 5918 5918 5918 5918 5918 5918 5919 5919 5919 5919 5919 5919 5919 5920 5920 5920 5920 5920 5920 5920 5920 5919
5944 5944 5944 5944 5944 5944 5944 5943 5943 5942 5942 5941 5941 5940 5939 5939 5938 5937 5937 5936 5935 5935 5935 5934 5934 5933 5932 5932 5931 5931 5931 5931 5931 5930 5929 5929 5928 5928 5928 5927 5927 5926 5925 5925 5925 5924 5924 5924 5923 5923 5922 5922 5921 5921 5921 5922 5922 5921 5920 5920 5920 5919 5919 5918 5918 5918 5918 5918 5918 5918 5919 5919 5919 5918 5918 5918 5919 5918 5918 5918 5919 5919 5919 5919 5919
5944 5944 5944 5944 5944 5944 5944 5943 5943 5942 5942 5941 5941 5941 5940 5939 5938 5938 5937 5936 5935 5934 5934 5934 5934 5933 5932 5932 5931 5931 5931 5931 5931 5930 5930 5930 5929 5928 5928 5927 5927 5926 5926 5926 5925 5924 5924 5924 5923 5923 5922 5922 5921 5921 5921 5922 5922 5921 5920 5920 5920 5920 5919 5918 5918 5918 5918 5918 5918 5918 5918 5919 5918 5918 5918 5918 5917 5917 5917 5917 5918 5918 5919 5919 5918
5944 5944 5944 5944 5944 5944 5944 5943 5943 5942 5942 5942 5941 5941 5941 5940 5939 5938 5937 5936 5936 5935 5934 5934 5933 5933 5932 5932 5931 5931 5931 5931 5931 5931 5930 5930 5930 5929 5928 5928 5927 5927 5927 5927 5926 5924 5924 5924 5923 5923 5923 5922 5922 5921 5921 5922 5922 5921 5921 5920 5920 5920 5919 5918 5918 5918 5918 5918 5918 5918 5918 5918 5918 5918 5918 5917 5917 5917 5917 5917 5917 5918 5918 5918 5918
5944 5944 5945 5945 5944 5944 5944 5943 5943 5942 5942 5942 5941 5941 5941 5940 5939 5938 5938 5937 5936 5935 5934 5933 5933 5932 5932 5931 5931 5931 5931 5931 5931 5930 5930 5930 5929 5929 5928 5928 5927 5927 5927 5927 5927 5926 5924 5924 5924 5924 5923 5922 5921 5921 5921 5922 5922 5921 5921 5920 5919 5919 5919 5919 5918 5918 5918 5918 5918 5917 5917 5917 5918 5918 5918 5917 5917 5917 5918 5918 5917 5917 5918 5918 5917
5944 5945 5945 5945 5945 5944 5944 5943 5943 5942 5942 5942 5942 5941 5941 5940 5939 5939 5938 5937 5936 5935 5935 5934 5933 5932 5932 5931 5930 5930 5930 5930 5930 5930 5930 5929 5929 5929 5928 5928 5927 5927 5926 5926 5926 5926 5925 5924 5924 5923 5923 5922 5922 5921 5921 5921 5922 5921 5921 5920 5920 5919 5919 5919 5918 5918 5918 5918 5918 5918 5917 5917 5917 5918 5918 5917 5917 5917 5917 5917 5917 5917 5917 5917 5917
5945 5945 5945 5945 5945 5944 5944 5943 5943 5942 5942 5942 5942 5941 5941 5940 5939 5939 5938 5937 5936 5935 5935 5934 5933 5932 5932 5931 5930 5930 5930 5930 5930 5929 5929 5929 5929 5928 5927 5927 5926 5925 5925 5925 5925 5925 5925 5924 5923 5923 5922 5922 5922 5922 5921 5920 5921 5921 5920 5920 5920 5919 5919 5919 5918 5918 5918 5918 5919 5918 5917 5917 5917 5918 5918 5917 5916 5916 5916 5916 5916 5916 5916 5916 5916
5944 5945 5945 5945 5945 5944 5944 5943 5943 5942 5942 5942 5941 5941 5940 5940 5939 5939 5938 5937 5937 5936 5935 5934 5934 5933 5932 5931 5930 5930 5930 5930 5930 5929 5929 5929 5928 5928 5927 5926 5925 5924 5924 5923 5923 5923 5923 5923 5923 5922 5922 5922 5922 5921 5920 5920 5919 5919 5919 5920 5920 5919 5919 5919 5918 5918 5918 5918 5919 5918 5917 5917 5916 5917 5917 5917 5916 5916 5916 5916 5916 5915 5915 5915 5915
5944 5944 5945 5945 5945 5944 5944 5943 5943 5942 5942 5942 5941 5941 5940 5939 5939 5939 5938 5937 5937 5936 5935 5934 5934 5933 5932 5931 5931 5930 5930 5930 5929 5929 5929 5928 5928 5927 5926 5925 5925 5924 5923 5923 5922 5922 5922 5922 5922 5922 5922 5922 5921 5920 5919 5919 5918 5918 5919 5919 5919 5919 5919 5919 5918 5918 5918 5918 5918 5918 5917 5917 5916 5916 5916 5916 5916 5915 5915 5915 5915 5915 5914 5914 5913
5944 5944 5945 5945 5944 5944 5944 5943 5943 5942 5942 5942 5941 5941 5940 5939 5939 5939 5938 5937 5937 5937 5936 5935 5934 5933 5932 5932 5931 5930 5930 5929 5929 5929 5928 5928 5927 5927 5926 5925 5925 5924 5924 5923 5923 5922 5921 5921 5921 5921 5921 5921 5920 5920 5919 5919 5918 5918 5918 5918 5918 5918 5918 5918 5918 5918 5917 5917 5917 5917 5917 5916 5916 5916 5916 5916 5915 5915 5915 5914 5914 5914 5913 5913 5912
5944 5944 5944 5944 5944 5944 5944 5943 5943 5943 5942 5942 5941 5940 5940 5939 5939 5938 5938 5938 5937 5937 5936 5935 5934 5933 5933 5932 5931 5930 5930 5929 5929 5928 5928 5927 5927 5926 5926 5925 5925 5924 5924 5924 5923 5922 5922 5921 5921 5920 5920 5920 5919 5919 5919 5918 5918 5918 5917 5917 5917 5917 5917 5917 5917 5917 5917 5916 5916 5916 5916 5916 5916 5915 5915 5915 5915 5915 5914 5914 5913 5913 5912 5912 5912
5944 5944 5944 5944 5944 5944 5944 5943 5943 5942 5942 5941 5941 5940 5939 5939 5939 5938 5938 5938 5937 5937 5936 5935 5934 5934 5933 5932 5931 5930 5930 5929 5928 5928 5928 5927 5927 5926 5926 5925 5925 5924 5924 5924 5923 5922 5922 5921 5921 5920 5919 5919 5919 5918 5918 5918 5918 5917 5917 5917 5917 5917 5917 5916 5916 5916 5916 5915 5915 5915 5915 5915 5914 5914 5914 5914 5914 5914 5913 5913 5913 5912 5911 5911 5910
5944 5944 5944 5944 5944 5944 5943 5943 5943 5942 5942 5941 5940 5940 5939 5939 5939 5939 5939 5939 5938 5937 5936 5935 5934 5933 5933 5932 5931 5930 5930 5929 5928 5928 5927 5927 5926 5926 5926 5925 5925 5924 5924 5923 5923 5922 5922 5921 5920 5920 5919 5919 5918 5918 5918 5918 5917 5917 5917 5917 5916 5916 5916 5916 5915 5915 5915 5914 5914 5914 5914 5914 5913 5913 5913 5913 5913 5912 5912 5912 5911 5911 5910 5910 5909
5943 5943 5943 5943 5943 5943 5943 5943 5943 5942 5942 5941 5940 5940 5939 5939 5939 5939 5939 5939 5938 5937 5936 5935 5934 5933 5932 5932 5931 5930 5929 5929 5928 5928 5927 5927 5926 5926 5925 5925 5924 5924 5924 5923 5922 5922 5921 5920 5920 5920 5919 5919 5919 5918 5918 5917 5917 5917 5917 5917 5916 5916 5916 5915 5915 5914 5914 5914 5913 5913 5913 5912 5912 5912 5912 5911 5911 5911 5911 5910 5910 5909 5909 5908 5908
5943 5943 5943 5943 5943 5943 5943 5943 5943 5942 5942 5941 5940 5940 5940 5939 5939 5939 5939 5939 5938 5936 5935 5934 5933 5933 5932 5931 5931 5930 5929 5928 5928 5928 5927 5927 5926 5925 5925 5924 5924 5924 5923 5923 5922 5921 5921 5920 5919 5919 5919 5919 5919 5918 5918 5917 5917 5917 5917 5916 5916 5916 5915 5915 5914 5914 5913 5913 5913 5912 5912 5911 5911 5910 5910 5909 5909 5909 5909 5908 5908 5908 5907 5906 5906
5943 5943 5943 5943 5943 5943 5943 5942 5942 5942 5941 5941 5940 5940 5940 5939 5939 5939 5939 5938 5937 5936 5935 5934 5933 5932 5932 5931 5931 5930 5929 5929 5928 5927 5927 5926 5926 5925 5924 5924 5924 5923 5923 5922 5922 5921 5920 5919 5919 5918 5918 5918 5918 5918 5917 5917 5917 5916 5916 5916 5915 5915 5915 5914 5914 5913 5913 5912 5911 5911 5910 5910 5909 5908 5908 5907 5907 5907 5906 5906 5906 5905 5905 5904 5904
5942 5942 5942 5942 5942 5942 5942 5942 5942 5942 5941 5941 5940 5940 5940 5940 5939 5939 5939 5938 5937 5936 5935 5934 5933 5932 5932 5931 5931 5930 5929 5929 5928 5927 5926 5926 5925 5924 5924 5924 5923 5923 5922 5921 5921 5920 5919 5919 5918 5917 5917 5917 5917 5916 5916 5916 5916 5915 5915 5914 5914 5914 5913 5913 5912 5912 5911 5911 5910 5910 5909 5908 5907 5907 5906 5905 5905 5904 5904 5904 5903 5903 5902 5902 5901
5941 5942 5942 5942 5942 5941 5941 5941 5941 5941 5941 5940 5940 5940 5940 5940 5940 5939 5939 5938 5937 5936 5935 5934 5933 5932 5932 5931 5930 5930 5929 5929 5928 5927 5926 5925 5925 5924 5923 5923 5922 5922 5921 5921 5920 5919 5919 5918 5917 5917 5916 5916 5915 5915 5915 5915 5914 5914 5913 5913 5913 5912 5912 5912 5911 5911 5910 5909 5909 5908 5908 5907 5906 5906 5905 5904 5903 5902 5902 5901 5901 5900 5900 5899 5898
5940 5941 5941 5941 5941 5941 5941 5941 5941 5941 5941 5940 5940 5940 5940 5940 5940 5939 5939 5938 5937 5937 5935 5934 5933 5933 5932 5931 5931 5930 5929 5929 5928 5927 5926 5926 5925 5924 5923 5922 5921 5921 5920 5920 5920 5919 5918 5918 5917 5916 5916 5915 5914 5914 5914 5913 5913 5912 5912 5912 5912 5911 5911 5911 5910 5909 5909 5908 5907 5907 5907 5906 5905 5905 5904 5903 5902 5900 5899 5899 5898 5897 5896 5896 5895
5939 5940 5940 5941 5941 5940 5940 5940 5940 5940 5940 5940 5940 5940 5940 5940 5940 5939 5938 5938 5937 5937 5936 5934 5934 5933 5932 5932 5931 5930 5929 5929 5928 5927 5926 5925 5925 5924 5923 5922 5921 5920 5920 5919 5919 5919 5918 5917 5917 5916 5915 5915 5914 5913 5913 5912 5912 5911 5911 5911 5910 5909 5909 5909 5908 5908 5907 5906 5906 5905 5905 5904 5903 5902 5902 5901 5900 5898 5897 5896 5895 5894 5893 5893 5892
5938 5939 5939 5940 5940 5939 5939 5939 5939 5939 5939 5939 5939 5939 5940 5940 5939 5939 5938 5938 5937 5936 5936 5934 5934 5933 5932 5931 5931 5930 5929 5928 5927 5927 5926 5925 5924 5924 5923 5922 5921 5920 5920 5919 5918 5918 5918 5917 5916 5916 5915 5915 5914 5913 5913 5912 5911 5911 5910 5910 5909 5908 5907 5906 5906 5905 5905 5904 5903 5902 5902 5901 5900 5899 5898 5897 5896 5895 5894 5893 5892 5891 5890 5889 5888
5937 5938 5938 5938 5938 5938 5938 5938 5938 5938 5938 5938 5938 5938 5939 5939 5939 5939 5938 5937 5937 5936 5935 5935 5934 5933 5932 5931 5930 5930 5929 5928 5927 5926 5926 5925 5924 5923 5923 5922 5921 5920 5920 5919 5918 5917 5917 5916 5915 5915 5915 5914 5914 5913 5912 5912 5911 5910 5910 5909 5908 5907 5906 5905 5904 5903 5902 5901 5900 5899 5898 5897 5896 5895 5894 5893 5892 5891 5890 5889 5888 5887 5885 5885 5884
5935 5936 5937 5937 5937 5937 5937 5937 5937 5937 5937 5937 5937 5938 5938 5938 5938 5938 5938 5937 5936 5936 5935 5935 5934 5933 5932 5931 5930 5930 5929 5928 5927 5926 5926 5925 5924 5923 5923 5922 5921 5920 5920 5919 5918 5917 5916 5916 5915 5914 5914 5914 5913 5912 5911 5911 5910 5910 5909 5908 5907 5906 5905 5904 5902 5901 5900 5899 5897 5896 5895 5894 5893 5892 5891 5890 5888 5887 5886 5885 5883 5882 5881 5880 5879
5934 5935 5935 5936 5936 5936 5936 5936 5936 5936 5936 5936 5936 5937 5937 5937 5937 5937 5937 5936 5936 5935 5935 5934 5934 5933 5932 5931 5931 5930 5929 5928 5928 5927 5926 5925 5924 5923 5923 5922 5921 5920 5919 5918 5917 5916 5916 5915 5914 5913 5913 5912 5911 5911 5910 5909 5908 5908 5907 5906 5905 5904 5902 5901 5900 5899 5897 5896 5895 5893 5892 5890 5889 5888 5887 5885 5884 5882 5881 5880 5879 5877 5876 5875 5873
5932 5933 5934 5934 5935 5935 5935 5935 5935 5935 5935 5935 5935 5935 5936 5936 5936 5936 5936 5936 5935 5935 5934 5934 5933 5933 5932 5931 5930 5930 5929 5929 5928 5927 5926 5925 5924 5923 5923 5922 5921 5920 5919 5918 5917 5915 5915 5914 5913 5912 5911 5910 5909 5908 5907 5906 5906 5905 5904 5903 5902 5900 5899 5898 5896 5895 5894 5893 5891 5890 5888 5887 5885 5884 5882 5881 5879 5878 5876 5875 5873 5872 5870 5869 5868
5931 5932 5932 5933 5933 5934 5934 5934 5933 5933 5933 5933 5934 5934 5935 5935 5935 5935 5935 5935 5934 5934 5934 5933 5933 5932 5931 5931 5930 5929 5929 5928 5928 5927 5926 5925 5924 5923 5922 5921 5920 5919 5918 5918 5917 5915 5914 5913 5912 5911 5910 5908 5907 5906 5905 5904 5903 5902 5901 5900 5899 5897 5896 5894 5893 5891 5890 5889 5887 5885 5884 5883 5881 5880 5878 5876 5875 5873 5871 5870 5868 5866 5865 5863 5862
5929 5930 5931 5931 5931 5932 5932 5932 5932 5932 5932 5932 5932 5933 5933 5934 5934 5934 5934 5934 5933 5933 5933 5933 5932 5931 5931 5930 5930 5929 5928 5928 5927 5926 5925 5925 5924 5923 5922 5921 5920 5919 5918 5917 5917 5916 5914 5913 5912 5910 5909 5908 5906 5905 5904 5903 5901 5900 5899 5898 5897 5895 5893 5892 5890 5888 5887 5885 5883 5881 5880 5879 5877 5876 5874 5872 5870 5868 5866 5864 5863 5861 5859 5857 5855
5927 5928 5929 5929 5929 5930 5930 5930 5930 5930 5930 5930 5931 5931 5932 5932 5933 5933 5933 5933 5933 5932 5932 5931 5931 5931 5930 5930 5929 5928 5927 5926 5925 5925 5924 5923 5922 5921 5920 5920 5919 5918 5917 5917 5916 5915 5914 5913 5911 5910 5909 5907 5906 5904 5903 5901 5900 5898 5897 5896 5894 5892 5890 5889 5887 5885 5883 5881 5879 5878 5876 5875 5873 5872 5870 5867 5865 5863 5861 5858 5856 5854 5852 5850 5848
5924 5925 5926 5927 5927 5927 5928 5928 5928 5928 5928 5928 5929 5930 5930 5931 5931 5931 5931 5931 5931 5931 5931 5930 5930 5930 5929 5929 5928 5927 5926 5925 5924 5923 5922 5921 5920 5919 5919 5918 5917 5916 5916 5915 5914 5914 5913 5912 5911 5909 5908 5906 5905 5903 5901 5900 5898 5896 5895 5893 5891 5889 5887 5885 5883 5881 5879 5877 5875 5874 5872 5871 5869 5867 5865 5863 5860 5858 5855 5853 5850 5848 5845 5843 5841
5922 5923 5923 5924 5924 5925 5925 5926 5926 5926 5926 5926 5927 5928 5928 5928 5929 5929 5930 5930 5930 5930 5930 5929 5929 5929 5929 5928 5927 5926 5924 5923 5922 5921 5920 5919 5918 5917 5917 5916 5915 5914 5913 5913 5912 5912 5911 5910 5909 5908 5906 5904 5903 5901 5899 5898 5896 5894 5893 5891 5889 5886 5884 5882 5880 5878 5876 5874 5872 5870 5869 5867 5865 5863 5860 5857 5855 5852 5850 5847 5845 5842 5839 5836 5834
5919 5920 5920 5921 5921 5922 5923 5923 5923 5923 5923 5923 5924 5925 5926 5926 5927 5927 5928 5928 5928 5929 5929 5928 5928 5928 5928 5927 5926 5925 5923 5922 5921 5920 5919 5917 5916 5915 5914 5914 5913 5913 5912 5911 5910 5909 5908 5908 5907 5906 5904 5902 5900 5899 5897 5895 5893 5892 5890 5888 5885 5883 5882 5880 5878 5875 5873 5871 5869 5866 5865 5863 5860 5858 5855 5852 5849 5846 5844 5841 5838 5835 5833 5830 5828
5916 5917 5917 5918 5918 5919 5920 5920 5920 5920 5920 5921 5921 5923 5923 5924 5925 5925 5926 5926 5927 5927 5927 5927 5927 5926 5926 5926 5925 5923 5922 5921 5920 5918 5917 5915 5914 5913 5912 5911 5911 5911 5910 5909 5908 5906 5905 5904 5903 5902 5901 5899 5897 5896 5894 5892 5890 5888 5886 5884 5882 5880 5878 5876 5874 5872 5870 5868 5865 5862 5860 5857 5855 5852 5848 5846 5843 5840 5837 5834 5832 5829 5827 5824 5822
5912 5913 5914 5915 5916 5916 5916 5916 5917 5917 5918 5918 5919 5920 5921 5922 5922 5923 5924 5924 5925 5925 5926 5925 5925 5924 5924 5924 5923 5922 5920 5919 5918 5917 5916 5914 5913 5911 5910 5909 5909 5909 5908 5907 5906 5904 5903 5901 5900 5898 5897 5896 5894 5892 5890 5889 5887 5885 5882 5880 5878 5876 5874 5872 5870 5868 5865 5863 5860 5857 5854 5851 5848 5845 5842 5838 5835 5832 5829 5827 5825 5822 5820 5818 5816
5909 5910 5911 5912 5912 5913 5913 5913 5914 5914 5915 5916 5917 5918 5919 5920 5920 5921 5921 5922 5922 5923 5923 5923 5923 5923 5922 5922 5921 5920 5919 5918 5917 5916 5914 5913 5912 5910 5909 5908 5907 5907 5906 5905 5904 5902 5901 5899 5897 5895 5894 5892 5890 5888 5887 5885 5883 5881 5878 5876 5874 5872 5870 5867 5865 5863 5860 5858 5855 5852 5849 5846 5842 5839 5835 5831 5828 5825 5823 5820 5818 5816 5814 5812 5810
5906 5907 5908 5908 5909 5910 5910 5910 5911 5911 5912 5913 5914 5915 5916 5918 5918 5918 5919 5919 5920 5920 5921 5921 5921 5921 5920 5919 5919 5918 5917 5916 5915 5914 5913 5911 5910 5909 5908 5907 5906 5905 5904 5903 5902 5900 5899 5897 5895 5893 5891 5889 5887 5885 5883 5881 5880 5878 5875 5873 5871 5869 5866 5863 5861 5859 5856 5853 5850 5847 5844 5841 5836 5832 5829 5825 5822 5820 5817 5814 5812 5811 5809 5807 5804
5903 5904 5905 5906 5906 5907 5908 5908 5908 5909 5910 5911 5913 5913 5914 5915 5916 5916 5916 5916 5917 5918 5918 5919 5919 5919 5918 5917 5917 5916 5915 5914 5913 5912 5911 5910 5908 5907 5906 5905 5904 5903 5902 5901 5899 5898 5897 5895 5893 5891 5889 5887 5885 5882 5880 5878 5876 5874 5872 5870 5867 5865 5862 5859 5857 5855 5852 5848 5845 5842 5838 5836 5832 5827 5824 5820 5817 5815 5812 5810 5808 5806 5804 5802 5799
5901 5902 5903 5903 5904 5905 5906 5906 5906 5907 5908 5909 5911 5911 5912 5912 5913 5913 5913 5913 5914 5915 5915 5916 5916 5916 5916 5915 5914 5914 5913 5912 5911 5910 5909 5908 5907 5905 5904 5903 5901 5900 5899 5898 5897 5896 5895 5893 5891 5889 5887 5885 5882 5880 5877 5875 5873 5871 5868 5866 5864 5862 5859 5856 5853 5851 5848 5843 5840 5837 5833 5830 5827 5823 5819 5816 5813 5810 5808 5805 5803 5800 5799 5797 5795
5900 5901 5901 5902 5903 5903 5904 5904 5905 5905 5907 5907 5908 5909 5909 5909 5910 5910 5910 5910 5911 5911 5912 5913 5913 5913 5913 5912 5912 5911 5910 5910 5909 5907 5906 5906 5904 5903 5902 5901 5899 5898 5897 5896 5895 5894 5893 5891 5889 5887 5884 5882 5880 5877 5875 5872 5870 5868 5865 5863 5861 5858 5855 5852 5848 5845 5843 5839 5835 5832 5829 5825 5822 5819 5815 5811 5808 5805 5803 5800 5798 5796 5794 5792 5790
5898 5899 5900 5901 5901 5902 5902 5903 5903 5904 5904 5905 5906 5906 5906 5906 5907 5907 5907 5907 5907 5908 5909 5910 5910 5910 5910 5910 5909 5908 5908 5907 5906 5905 5904 5903 5902 5901 5900 5899 5897 5896 5894 5893 5892 5891 5890 5888 5886 5884 5881 5879 5877 5874 5872 5869 5867 5865 5862 5859 5857 5854 5851 5848 5844 5840 5838 5834 5830 5827 5824 5820 5816 5814 5811 5807 5804 5801 5798 5796 5794 5791 5789 5787 5784
5897 5898 5899 5899 5900 5900 5901 5901 5901 5902 5902 5903 5903 5903 5903 5903 5903 5903 5903 5903 5904 5905 5906 5907 5907 5907 5907 5907 5906 5906 5905 5904 5903 5902 5902 5901 5900 5899 5897 5896 5895 5893 5892 5891 5890 5888 5887 5885 5883 5881 5878 5876 5873 5871 5868 5866 5863 5861 5858 5856 5853 5850 5847 5844 5840 5836 5833 5830 5826 5822 5819 5815 5811 5809 5806 5803 5801 5797 5794 5792 5789 5786 5783 5781 5778
5895 5896 5897 5897 5898 5898 5899 5899 5899 5900 5900 5901 5901 5901 5901 5901 5900 5900 5900 5900 5900 5901 5902 5903 5903 5903 5903 5903 5903 5902 5902 5901 5900 5899 5899 5898 5897 5896 5895 5893 5892 5891 5889 5888 5887 5885 5883 5881 5879 5877 5875 5872 5870 5867 5865 5863 5860 5857 5855 5852 5849 5847 5843 5840 5836 5832 5828 5825 5821 5818 5814 5811 5807 5805 5802 5800 5797 5793 5790 5787 5784 5781 5778 5775 5772
5893 5893 5894 5895 5895 5896 5896 5897 5897 5897 5898 5898 5898 5898 5898 5897 5897 5896 5896 5896 5897 5898 5898 5899 5899 5899 5899 5899 5899 5899 5899 5898 5897 5896 5895 5894 5894 5893 5892 5890 5889 5888 5887 5885 5883 5882 5880 5878 5875 5873 5871 5868 5866 5863 5861 5859 5857 5854 5851 5848 5845 5843 5839 5835 5832 5828 5824 5821 5817 5813 5810 5807 5803 5801 5799 5796 5793 5789 5785 5782 5779 5777 5773 5770 5767
5890 5890 5891 5892 5892 5893 5893 5893 5894 5894 5895 5895 5895 5895 5894 5894 5893 5893 5893 5893 5893 5894 5894 5895 5895 5895 5894 5894 5895 5895 5895 5894 5894 5892 5890 5890 5890 5889 5888 5887 5885 5884 5883 5882 5880 5878 5876 5874 5872 5869 5867 5865 5862 5860 5857 5855 5852 5850 5847 5844 5841 5839 5835 5831 5827 5824 5820 5816 5813 5810 5806 5803 5800 5797 5795 5792 5789 5785 5781 5777 5774 5771 5768 5765 5762
5886 5887 5888 5888 5889 5889 5889 5889 5890 5890 5890 5890 5891 5891 5891 5890 5889 5889 5889 5889 5889 5890 5890 5890 5890 5890 5890 5890 5890 5890 5890 5890 5890 5888 5886 5885 5886 5885 5884 5883 5882 5881 5879 5878 5876 5874 5872 5870 5868 5866 5863 5861 5858 5856 5854 5851 5848 5846 5843 5840 5837 5834 5830 5827 5823 5820 5816 5812 5809 5806 5802 5799 5796 5793 5791 5788 5784 5780 5776 5772 5769 5766 5763 5759 5755
5883 5883 5884 5884 5884 5884 5885 5885 5885 5885 5885 5885 5886 5886 5886 5886 5884 5884 5884 5884 5884 5885 5885 5885 5886 5886 5885 5885 5885 5885 5885 5885 5885 5883 5881 5880 5881 5880 5879 5879 5877 5877 5875 5873 5872 5870 5868 5866 5864 5862 5860 5857 5855 5852 5850 5847 5844 5842 5839 5836 5833 5829 5826 5823 5820 5817 5812 5808 5805 5802 5798 5795 5792 5789 5787 5784 5780 5776 5771 5768 5764 5760 5757 5753 5749
5878 5878 5878 5879 5880 5880 5880 5880 5880 5880 5880 5880 5881 5882 5882 5881 5880 5879 5878 5878 5879 5879 5879 5879 5880 5880 5879 5878 5878 5878 5878 5878 5879 5878 5875 5875 5876 5875 5874 5873 5873 5872 5870 5867 5867 5866 5864 5861 5860 5858 5855 5853 5851 5848 5845 5843 5840 5838 5835 5832 5829 5825 5822 5819 5816 5813 5808 5805 5802 5799 5794 5791 5789 5786 5783 5780 5776 5772 5768 5763 5760 5756 5752 5748 5744